CCM442 LFKJ-LFKB

Flight info

Callsign CCM442
Flight time 0h 27m
Altitude 13000
Route BTA1R BTA L146 MOULE MOULE1V
Aircraft AT76/M-SDFGIRY/S

Departure

Time 2026-04-26 07:36
Airport Ajaccio Napoléon Bonaparte airport (LFKJ)

Arrival

Time 2026-04-26 08:04
Airport Bastia-Poretta International airport (LFKB)
Time Latitude Longitude Altitude Speed Heading
2026-04-26 07:21 41.91980 8.79569 22 ft 0 kts 345°
2026-04-26 07:32 41.91983 8.79573 21 ft 1 kts 33°
2026-04-26 07:32 41.91982 8.79584 21 ft 1 kts 110°
2026-04-26 07:32 41.91969 8.79615 23 ft 6 kts 111°
2026-04-26 07:32 41.91987 8.79660 22 ft 6 kts 33°
2026-04-26 07:33 41.92039 8.79693 24 ft 16 kts 25°
2026-04-26 07:33 41.92165 8.79772 25 ft 18 kts 25°
2026-04-26 07:33 41.92265 8.79835 22 ft 14 kts 25°
2026-04-26 07:33 41.92355 8.79890 22 ft 18 kts 24°
2026-04-26 07:34 41.92486 8.79972 24 ft 21 kts 24°
2026-04-26 07:34 41.92612 8.80050 24 ft 19 kts 22°
2026-04-26 07:34 41.92725 8.80122 23 ft 17 kts 27°
2026-04-26 07:34 41.92816 8.80207 22 ft 15 kts 44°
2026-04-26 07:35 41.92889 8.80304 22 ft 14 kts 45°
2026-04-26 07:35 41.92948 8.80387 23 ft 11 kts 52°
2026-04-26 07:35 41.92953 8.80514 27 ft 15 kts 122°
2026-04-26 07:35 41.92809 8.80503 26 ft 38 kts 203°
2026-04-26 07:36 41.92337 8.80210 24 ft 108 kts 205°
2026-04-26 07:36 41.91528 8.79747 367 ft 132 kts 199°
2026-04-26 07:36 41.90647 8.79222 902 ft 145 kts 217°
2026-04-26 07:36 41.90069 8.78088 1532 ft 151 kts 250°
2026-04-26 07:37 41.89689 8.76756 2178 ft 157 kts 248°
2026-04-26 07:37 41.89250 8.75381 2822 ft 161 kts 245°
2026-04-26 07:37 41.88751 8.74023 3438 ft 167 kts 242°
2026-04-26 07:37 41.88164 8.72624 4065 ft 175 kts 240°
2026-04-26 07:38 41.87535 8.71199 4698 ft 181 kts 240°
2026-04-26 07:38 41.86871 8.69724 5329 ft 187 kts 239°
2026-04-26 07:38 41.86189 8.68227 5950 ft 192 kts 239°
2026-04-26 07:38 41.85782 8.66506 6392 ft 202 kts 274°
2026-04-26 07:39 41.86342 8.64762 6763 ft 216 kts 308°
2026-04-26 07:39 41.87410 8.63249 7131 ft 228 kts 318°
2026-04-26 07:39 41.88655 8.61888 7489 ft 237 kts 322°
2026-04-26 07:39 41.90028 8.60589 7866 ft 240 kts 332°
2026-04-26 07:40 41.91682 8.60197 8238 ft 248 kts
2026-04-26 07:40 41.93369 8.60706 8612 ft 254 kts 18°
2026-04-26 07:40 41.95011 8.61669 8997 ft 259 kts 26°
2026-04-26 07:40 41.96586 8.62817 9389 ft 263 kts 28°
2026-04-26 07:41 41.98197 8.64027 9773 ft 265 kts 28°
2026-04-26 07:41 41.99810 8.65217 10151 ft 266 kts 27°
2026-04-26 07:41 42.01463 8.66384 10516 ft 267 kts 26°
2026-04-26 07:41 42.03105 8.67529 10870 ft 268 kts 26°
2026-04-26 07:42 42.04776 8.68690 11227 ft 269 kts 26°
2026-04-26 07:42 42.06431 8.69835 11524 ft 272 kts 26°
2026-04-26 07:42 42.08138 8.70998 11772 ft 276 kts 26°
2026-04-26 07:42 42.09872 8.72168 12036 ft 280 kts 26°
2026-04-26 07:43 42.11599 8.73348 12283 ft 283 kts 26°
2026-04-26 07:43 42.13359 8.74579 12540 ft 285 kts 26°
2026-04-26 07:43 42.15113 8.75802 12789 ft 287 kts 26°
2026-04-26 07:43 42.16887 8.77039 12985 ft 290 kts 26°
2026-04-26 07:44 42.18715 8.78310 13063 ft 295 kts 26°
2026-04-26 07:44 42.20559 8.79596 13109 ft 300 kts 26°
2026-04-26 07:44 42.22416 8.80887 13130 ft 303 kts 26°
2026-04-26 07:44 42.24281 8.82188 13122 ft 298 kts 27°
2026-04-26 07:45 42.25848 8.83903 13130 ft 296 kts 49°
2026-04-26 07:45 42.27027 8.86210 13138 ft 297 kts 57°
2026-04-26 07:45 42.28100 8.88554 13141 ft 296 kts 57°
2026-04-26 07:45 42.29193 8.90915 13143 ft 296 kts 56°
2026-04-26 07:46 42.30323 8.93227 13140 ft 295 kts 55°
2026-04-26 07:46 42.31484 8.95533 13135 ft 295 kts 54°
2026-04-26 07:46 42.32636 8.97813 13131 ft 294 kts 54°
2026-04-26 07:46 42.33785 9.00069 13135 ft 293 kts 54°
2026-04-26 07:47 42.34957 9.02352 13139 ft 293 kts 54°
2026-04-26 07:47 42.36100 9.04614 13140 ft 293 kts 55°
2026-04-26 07:47 42.37237 9.06888 13138 ft 293 kts 55°
2026-04-26 07:47 42.38386 9.09188 13133 ft 292 kts 55°
2026-04-26 07:48 42.39517 9.11449 13140 ft 292 kts 55°
2026-04-26 07:48 42.40658 9.13738 13138 ft 292 kts 55°
2026-04-26 07:48 42.41779 9.15985 13138 ft 292 kts 55°
2026-04-26 07:48 42.42922 9.18278 13138 ft 292 kts 55°
2026-04-26 07:49 42.44042 9.20527 13141 ft 292 kts 55°
2026-04-26 07:49 42.45188 9.22828 13145 ft 291 kts 55°
2026-04-26 07:49 42.46311 9.25087 13148 ft 291 kts 55°
2026-04-26 07:50 42.48576 9.29647 13148 ft 292 kts 55°
2026-04-26 07:50 42.49699 9.31909 13151 ft 292 kts 55°
2026-04-26 07:50 42.50842 9.34217 13152 ft 292 kts 55°
2026-04-26 07:50 42.51965 9.36484 13145 ft 292 kts 55°
2026-04-26 07:51 42.53103 9.38780 13149 ft 292 kts 55°
2026-04-26 07:51 42.54240 9.41073 13149 ft 292 kts 55°
2026-04-26 07:51 42.55364 9.43341 13144 ft 292 kts 55°
2026-04-26 07:51 42.56492 9.45627 13085 ft 288 kts 55°
2026-04-26 07:52 42.57559 9.47936 12573 ft 294 kts 64°
2026-04-26 07:52 42.58100 9.50594 12066 ft 281 kts 78°
2026-04-26 07:52 42.58436 9.53135 11572 ft 269 kts 79°
2026-04-26 07:52 42.58771 9.55588 11078 ft 260 kts 78°
2026-04-26 07:53 42.59153 9.57936 10589 ft 253 kts 76°
2026-04-26 07:53 42.59556 9.60214 10124 ft 247 kts 76°
2026-04-26 07:53 42.59958 9.62473 9604 ft 243 kts 75°
2026-04-26 07:53 42.60353 9.64666 9090 ft 239 kts 76°
2026-04-26 07:54 42.60869 9.66779 8565 ft 232 kts 57°
2026-04-26 07:54 42.62065 9.68152 8075 ft 228 kts 20°
2026-04-26 07:54 42.63624 9.68280 7579 ft 224 kts 343°
2026-04-26 07:54 42.64907 9.67222 7100 ft 218 kts 318°
2026-04-26 07:55 42.66063 9.65867 6622 ft 218 kts 318°
2026-04-26 07:55 42.67227 9.64557 6117 ft 218 kts 322°
2026-04-26 07:55 42.68470 9.63402 5615 ft 218 kts 326°
2026-04-26 07:55 42.69786 9.62351 5109 ft 218 kts 332°
2026-04-26 07:56 42.71165 9.61521 4611 ft 218 kts 339°
2026-04-26 07:56 42.72622 9.60901 4109 ft 218 kts 345°
2026-04-26 07:56 42.74094 9.60449 3610 ft 218 kts 348°
2026-04-26 07:56 42.75454 9.59650 3129 ft 212 kts 316°
2026-04-26 07:57 42.76101 9.57970 2871 ft 198 kts 275°
2026-04-26 07:57 42.75798 9.56278 2766 ft 174 kts 239°
2026-04-26 07:57 42.75240 9.54883 2699 ft 167 kts 241°
2026-04-26 07:57 42.74734 9.53519 2672 ft 158 kts 243°
2026-04-26 07:58 42.74278 9.52134 2661 ft 162 kts 246°
2026-04-26 07:58 42.73884 9.50703 2653 ft 159 kts 250°
2026-04-26 07:58 42.73514 9.49306 2648 ft 157 kts 238°
2026-04-26 07:58 42.72634 9.48504 2646 ft 155 kts 197°
2026-04-26 07:59 42.71547 9.48058 2653 ft 164 kts 197°
2026-04-26 07:59 42.70494 9.47587 2650 ft 163 kts 198°
2026-04-26 07:59 42.69403 9.47041 2646 ft 164 kts 201°
2026-04-26 07:59 42.68363 9.46461 2650 ft 157 kts 198°
2026-04-26 08:00 42.67318 9.46426 2643 ft 141 kts 174°
2026-04-26 08:00 42.66422 9.46533 2487 ft 126 kts 175°
2026-04-26 08:00 42.65532 9.46621 1992 ft 130 kts 175°
2026-04-26 08:00 42.64654 9.46701 1690 ft 123 kts 176°
2026-04-26 08:01 42.63840 9.46771 1701 ft 107 kts 176°
2026-04-26 08:01 42.63025 9.46837 1266 ft 129 kts 176°
2026-04-26 08:01 42.62132 9.46902 1049 ft 126 kts 177°
2026-04-26 08:01 42.61276 9.46964 873 ft 121 kts 177°
2026-04-26 08:02 42.60726 9.47003 801 ft 116 kts 176°
2026-04-26 08:02 42.59674 9.47078 624 ft 114 kts 176°
2026-04-26 08:02 42.58876 9.47124 471 ft 114 kts 175°
2026-04-26 08:02 42.58352 9.47198 416 ft 112 kts 169°
2026-04-26 08:03 42.57603 9.47407 356 ft 106 kts 163°
2026-04-26 08:03 42.56653 9.47801 133 ft 109 kts 161°
2026-04-26 08:03 42.56158 9.48001 42 ft 109 kts 162°
2026-04-26 08:03 42.55472 9.48295 27 ft 86 kts 162°
2026-04-26 08:04 42.55212 9.48400 27 ft 21 kts 164°
2026-04-26 08:04 42.55087 9.48453 28 ft 16 kts 161°
2026-04-26 08:04 42.54995 9.48441 28 ft 16 kts 230°
2026-04-26 08:04 42.54954 9.48288 27 ft 18 kts 251°
2026-04-26 08:05 42.54886 9.48252 27 ft 5 kts 184°
2026-04-26 08:05 42.54878 9.48215 27 ft 9 kts 279°
2026-04-26 08:05 42.54890 9.48143 27 ft 0 kts 281°